C/2018 E2 ( Barros )

Japanese version
Home page
Updated on September 22, 2018

---------------------------------------------------------------------

* Profile

Discovery Date March 12, 2018
Magnitude 19.4 mag
Discoverer Joao Barros (SONEAR Observatory, near Oliveira, Brazil)

* Pictures

* Orbital Elements

Epoch 2018 Jan. 2.0 TT = JDT 2458120.5
T 2017 Dec. 23.66498 TT                                 MPCW
q   3.9218112            (2000.0)            P               Q
z  +0.0009671      Peri.  277.47840     -0.07276036     +0.40045217
 +/-0.0001282      Node    67.19625     +0.54839846     +0.78103774
e   0.9962073      Incl.   97.74690     -0.83304565     +0.47918484
From 50 observations 2018 Mar. 12-May 12, mean residual 0".5.

* Magnitudes Graph

        m1 = 9.5 + 5 log d + 10.0 log r

---------------------------------------------------------------------

The orbital elements are published on M.P.E.C. 2018-K95.
The magnitudes graphs are made with Comet for Windows.

---------------------------------------------------------------------

Copyright(C) Seiichi Yoshida (comet@aerith.net). All rights reserved.